This is the latest recevied weather packets stored in our database for station/object LU1DNQ-10. If no packets are shown the sender has not sent any weather packets the latest 1 day(s).
| Time | Temp. | Humidity | Pressure | Rain* | Wind** | Luminosity | Snow |
|---|---|---|---|---|---|---|---|
| 1778119784 | 30° C | 44% | 991 hPa | - | - | 0 W/m² | - |
| 1778119462 | 29.44° C | 42% | 991 hPa | - | - | 0 W/m² | - |
| 1778118818 | 28.33° C | 31% | 991 hPa | - | - | 0 W/m² | - |
| 1778118496 | 28.89° C | 32% | 991 hPa | - | - | 0 W/m² | - |
| 1778118174 | 28.89° C | 32% | 990 hPa | - | - | 0 W/m² | - |
| 1778117852 | 28.89° C | 32% | 991 hPa | - | - | 0 W/m² | - |
| 1778117208 | 28.89° C | 32% | 991 hPa | - | - | 0 W/m² | - |
| 1778116886 | 29.44° C | 33% | 991 hPa | - | - | 0 W/m² | - |
| 1778116242 | 30° C | 33% | 990 hPa | - | - | 0 W/m² | - |
| 1778114954 | 30.56° C | 46% | 990 hPa | - | - | 0 W/m² | - |
| 1778114632 | 30° C | 45% | 990 hPa | - | - | 0 W/m² | - |
| 1778114002 | 28.89° C | 39% | 990 hPa | - | - | 0 W/m² | - |
| 1778102721 | 28.89° C | 31% | 989 hPa | - | - | 0 W/m² | - |
| 1778102075 | 28.89° C | 32% | 989 hPa | - | - | 0 W/m² | - |
| 1778100143 | 28.89° C | 32% | 990 hPa | - | - | 0 W/m² | - |
| 1778099499 | 28.89° C | 33% | 990 hPa | - | - | 0 W/m² | - |
| 1778097567 | 28.89° C | 33% | 991 hPa | - | - | 0 W/m² | - |
| 1778097245 | 28.89° C | 32% | 991 hPa | - | - | 0 W/m² | - |
| 1778096923 | 28.89° C | 32% | 991 hPa | - | - | 0 W/m² | - |
| 1778096601 | 29.44° C | 32% | 991 hPa | - | - | 0 W/m² | - |
| 1778096279 | 29.44° C | 32% | 991 hPa | - | - | 0 W/m² | - |
| 1778095957 | 29.44° C | 32% | 991 hPa | - | - | 0 W/m² | - |
| 1778095635 | 29.44° C | 31% | 991 hPa | - | - | 0 W/m² | - |
| 1778095313 | 28.89° C | 32% | 991 hPa | - | - | 0 W/m² | - |
| 1778094991 | 28.89° C | 32% | 991 hPa | - | - | 0 W/m² | - |
* Rain since midnight (hover to see other rain measurements)
** Current wind speed in m/s (hover to see current wind gust speed)